Wind_Speed
49 51 52 53 56 59 62 64 66 67 68 68 68 68 68 67 67 67 66 67 67 68 69 71 73 75 77 78 79 80 81 83 84 85 85 86 87 87 87 87 86 85
53 54 55 57 59 62 64 66 67 68 69 69 68 67 67 67 67 67 68 69 70 72 74 76 78 79 79 80 81 83 84 85 85 86 86 87 88 88 88 87 86 85
57 57 58 59 61 63 65 66 68 69 68 68 68 68 69 70 71 72 73 75 76 78 79 80 80 81 81 83 84 85 86 86 86 87 88 88 88 88 88 87 87 85
59 60 61 62 64 65 66 67 68 69 70 70 71 72 74 75 76 77 78 79 80 80 81 82 82 83 84 85 86 86 86 86 87 88 88 88 89 89 89 88 86 84
62 63 64 66 67 69 70 71 72 72 73 74 75 76 77 77 79 80 80 81 81 82 83 84 85 86 87 87 87 87 87 88 88 88 88 89 90 90 89 88 85 83
65 65 67 68 70 71 72 73 74 74 75 76 76 77 78 79 81 81 81 82 83 84 85 86 86 87 87 87 87 88 88 89 89 89 89 91 91 90 88 86 84 82
64 65 66 68 70 71 72 73 73 74 75 76 77 78 80 81 81 82 82 83 84 85 85 86 86 86 86 87 88 89 89 89 89 90 91 91 91 89 86 84 83 82
64 65 67 68 70 71 72 73 74 75 76 77 78 79 80 81 81 82 83 83 84 84 84 84 85 86 87 88 89 89 89 90 91 92 91 90 89 87 85 84 83 82
66 67 68 69 70 71 72 73 74 76 77 78 79 79 80 81 81 82 82 82 82 82 84 85 86 87 88 88 89 90 91 92 92 91 90 88 87 85 85 84 82 80
65 66 68 69 70 71 72 73 75 76 77 78 78 79 79 80 80 80 80 81 82 84 85 86 86 87 87 89 90 92 92 92 91 90 88 86 85 84 84 82 80 77
64 66 67 69 70 71 72 73 74 75 75 76 76 77 77 78 78 79 80 82 83 84 85 85 86 87 89 90 91 92 91 91 89 88 87 85 85 84 82 80 77 74
63 65 66 67 68 69 70 71 72 72 73 73 73 74 74 75 77 78 79 81 82 83 84 85 87 88 90 90 91 91 90 89 88 87 86 86 85 83 80 78 75 72
62 63 64 65 66 67 68 68 69 69 70 70 71 72 74 75 76 77 79 80 82 83 85 86 88 89 89 90 90 90 89 88 88 87 86 85 83 80 78 75 72 70
61 62 62 63 63 64 64 65 66 67 68 69 71 72 74 75 76 78 79 81 83 84 86 87 88 89 89 89 89 89 88 88 87 87 85 83 80 78 75 72 71 70
61 61 62 62 63 63 64 65 66 67 68 70 71 72 74 76 77 79 80 82 84 85 86 87 88 88 88 88 88 87 87 87 87 85 82 79 77 75 73 71 70 71
62 62 63 63 64 65 66 67 68 69 70 71 72 73 75 77 78 80 81 83 84 84 85 86 87 87 87 86 86 86 87 86 84 82 79 77 75 73 71 71 71 71
63 63 64 65 66 67 68 69 70 70 71 72 73 75 76 78 79 80 81 82 83 84 85 86 86 85 85 85 86 86 85 83 81 79 77 75 73 72 72 72 71 70
63 64 65 65 66 67 68 69 70 71 72 73 74 75 76 77 78 79 80 82 83 85 85 84 83 83 84 84 85 84 82 80 78 76 75 74 73 73 72 72 71 70
63 64 65 66 66 67 68 69 70 71 72 73 73 74 75 77 79 80 82 83 84 83 82 82 82 83 83 84 83 81 78 77 75 74 73 73 73 73 72 71 70 70
62 64 65 66 67 68 69 70 70 71 72 73 73 75 77 78 80 81 82 82 81 80 80 81 82 82 82 82 80 78 76 75 73 72 72 72 72 72 71 70 70 70
63 64 65 66 67 68 69 70 71 72 72 73 75 76 78 79 79 79 79 78 78 79 80 81 81 81 81 79 77 75 74 73 72 72 72 72 72 71 70 70 69 69
64 65 66 67 68 68 69 70 70 71 72 73 75 76 76 76 76 75 76 76 77 79 80 81 81 80 78 76 75 73 73 72 72 72 72 71 71 70 70 69 68 68
65 65 66 66 67 67 67 68 69 70 71 71 72 72 72 72 73 73 75 76 78 79 80 80 79 78 76 74 73 72 71 71 71 71 70 69 69 69 69 68 68 68
64 64 64 65 65 66 66 67 67 67 68 68 69 69 70 71 72 74 75 77 78 79 79 78 77 75 74 72 71 70 70 70 70 70 69 68 68 68 68 68 69 70
62 62 63 63 64 64 64 64 65 65 66 67 67 68 70 71 73 75 76 77 78 78 78 76 75 73 71 69 69 69 69 69 69 68 67 67 67 67 67 68 70 71
60 61 61 62 62 62 62 63 64 65 66 67 68 69 71 73 74 76 77 77 77 77 76 74 72 70 68 67 68 68 68 67 67 67 67 68 68 68 68 70 70 70
Wind_Direction
256 255 255 257 259 262 265 269 272 274 276 277 279 281 283 285 287 289 291 293 294 295 296 297 298 299 300 301 302 302 303 303 304 305 307 308 309 310 311 311 311 311
257 257 258 260 262 264 267 270 272 274 275 277 279 281 284 286 289 290 292 293 294 295 296 297 298 298 299 300 301 302 302 303 304 306 307 308 309 310 310 310 310 310
258 257 259 261 264 266 268 270 272 274 275 278 280 283 285 287 289 290 291 293 294 294 295 296 297 298 299 300 300 301 302 303 305 306 307 308 309 309 309 310 309 309
258 259 260 262 264 266 269 271 273 274 277 279 282 284 286 287 288 290 291 292 293 293 294 295 296 297 298 299 300 301 302 303 305 306 307 307 308 309 309 309 308 308
259 260 262 264 265 267 269 271 273 275 278 280 282 284 285 286 287 288 290 291 292 293 294 295 296 297 298 299 300 301 302 303 305 306 306 307 308 308 308 308 307 307
261 262 264 265 267 268 270 272 274 276 278 279 281 283 284 285 287 288 289 291 292 293 295 296 297 298 299 299 300 301 303 304 305 305 306 307 308 308 308 307 307 306
263 264 265 266 268 269 271 273 275 276 278 279 281 282 284 285 287 289 290 292 293 295 296 296 297 298 299 300 301 302 303 304 305 305 306 307 307 307 307 306 306 305
263 265 266 268 269 270 272 273 275 276 278 279 281 283 284 286 288 290 292 293 295 295 296 297 298 299 300 301 302 302 303 304 305 305 306 307 307 306 306 305 305 305
266 267 269 270 271 273 274 275 276 277 279 281 282 284 286 288 290 292 293 294 295 295 296 297 298 299 300 301 301 302 303 304 304 305 306 306 306 305 305 305 304 303
268 269 271 272 273 275 276 277 278 279 281 283 285 287 288 290 291 292 293 294 294 295 296 297 298 298 299 300 301 302 303 304 305 305 305 305 305 305 304 303 302 301
270 271 272 274 275 277 278 279 281 282 284 285 287 288 290 291 292 292 293 293 294 294 295 296 297 298 299 300 302 303 304 304 305 305 305 304 304 303 303 302 301 300
273 274 275 277 278 279 280 282 283 284 285 287 288 289 290 291 291 292 292 293 293 294 295 296 298 299 300 301 302 303 304 304 304 304 304 304 304 303 303 302 302 302
276 277 278 279 280 281 282 283 284 285 286 287 288 289 289 290 290 291 291 292 293 294 296 297 298 299 301 302 303 304 304 304 304 304 304 304 304 304 304 304 304 304
277 278 279 280 282 282 283 284 284 285 286 287 288 288 288 289 289 290 291 293 294 295 297 298 299 300 302 303 303 303 304 304 304 305 305 305 305 305 305 305 305 305
276 277 279 280 281 282 282 283 284 285 286 287 288 288 288 289 289 291 292 294 295 296 297 299 300 301 302 303 303 303 304 304 305 305 305 305 305 305 305 306 306 306
276 277 278 279 280 281 282 283 284 285 286 287 288 288 289 290 291 292 293 294 295 297 298 299 301 301 302 302 303 303 304 304 305 305 305 305 305 306 306 307 307 307
275 277 278 279 280 281 282 283 284 285 286 287 288 289 290 291 292 293 294 295 296 298 299 300 301 301 302 302 303 303 304 305 305 305 306 306 307 307 307 308 308 307
277 278 279 280 281 282 283 284 285 286 287 288 289 290 291 292 293 294 295 296 297 299 299 300 300 301 302 303 303 304 305 306 306 306 307 307 307 308 308 308 308 307
278 279 279 280 281 282 283 284 285 286 288 288 289 290 291 292 293 294 295 297 298 298 299 300 301 302 302 304 304 305 306 306 306 307 307 307 308 308 308 308 307 307
278 279 280 281 282 283 284 285 286 287 288 289 289 290 291 292 293 294 295 296 297 298 299 300 301 302 304 305 305 306 306 306 307 307 308 308 308 308 308 308 308 308
280 281 282 283 284 285 285 286 287 287 288 289 289 290 291 293 294 294 295 296 297 298 300 301 303 304 305 305 306 306 306 307 307 308 309 309 309 308 308 308 308 308
282 283 283 284 285 285 286 286 287 288 288 289 290 291 292 293 294 294 295 297 298 300 302 303 304 305 306 306 306 307 307 307 308 309 309 309 309 309 309 309 309 309
283 283 284 284 285 285 286 287 287 288 289 290 291 292 292 293 294 295 297 299 301 302 303 304 305 306 306 306 307 307 307 308 308 309 309 309 309 309 309 310 310 310
282 283 283 284 284 285 286 287 288 289 290 291 291 292 293 294 295 297 299 301 302 303 304 305 306 306 307 307 307 307 307 308 308 309 309 309 309 310 311 311 311 311
282 282 283 284 285 286 288 289 290 290 291 291 292 293 294 295 297 299 301 302 303 304 305 306 306 306 306 306 306 307 307 308 308 309 309 310 311 312 312 312 311 312
282 283 284 285 286 288 289 289 290 291 291 292 293 294 295 297 298 300 302 303 304 305 306 306 306 306 306 306 306 307 308 309 309 310 311 312 313 313 312 312 313 313
Height
10728 10728 10728 10729 10728 10728 10726 10725 10723 10721 10719 10718 10717 10715 10713 10711 10709 10707 10704 10701 10699 10696 10694 10691 10689 10686 10684 10682 10679 10677 10674 10671 10668 10665 10661 10658 10654 10650 10647 10644 10640 10636
10724 10724 10724 10724 10723 10722 10721 10720 10717 10715 10714 10713 10711 10710 10708 10706 10703 10700 10698 10695 10692 10690 10687 10685 10683 10680 10678 10676 10673 10670 10668 10664 10661 10658 10654 10650 10646 10642 10639 10636 10631 10627
10719 10719 10719 10718 10717 10716 10715 10713 10712 10710 10709 10707 10706 10704 10701 10699 10696 10694 10691 10689 10686 10684 10681 10679 10676 10674 10672 10669 10667 10664 10660 10657 10654 10650 10646 10642 10638 10635 10631 10627 10623 10618
10713 10713 10712 10712 10711 10710 10708 10707 10705 10704 10703 10701 10699 10697 10695 10692 10690 10687 10685 10683 10680 10678 10675 10673 10670 10668 10665 10662 10660 10656 10653 10650 10646 10643 10639 10635 10631 10627 10622 10618 10614 10610
10708 10707 10707 10706 10705 10704 10702 10701 10699 10698 10697 10695 10693 10691 10689 10686 10683 10681 10679 10676 10674 10671 10668 10666 10663 10660 10658 10655 10652 10649 10645 10642 10639 10635 10631 10627 10622 10618 10613 10609 10605 10601
10702 10702 10701 10700 10699 10697 10696 10695 10694 10693 10691 10689 10687 10685 10682 10680 10677 10675 10672 10670 10667 10664 10661 10658 10655 10653 10650 10647 10644 10641 10637 10634 10631 10627 10623 10618 10613 10609 10604 10600 10596 10592
10696 10695 10695 10694 10692 10691 10690 10690 10689 10687 10685 10683 10681 10679 10676 10674 10671 10668 10665 10662 10659 10656 10653 10650 10648 10645 10642 10639 10636 10632 10629 10626 10623 10618 10614 10609 10604 10599 10595 10591 10587 10583
10690 10689 10688 10687 10686 10685 10684 10684 10682 10680 10678 10676 10674 10672 10669 10667 10664 10661 10658 10655 10652 10649 10645 10643 10640 10637 10634 10631 10628 10625 10621 10618 10614 10610 10605 10600 10595 10591 10586 10582 10578 10574
10683 10682 10681 10680 10679 10679 10678 10677 10675 10673 10671 10669 10667 10665 10662 10659 10656 10653 10650 10647 10644 10641 10638 10635 10633 10630 10627 10624 10620 10617 10613 10609 10605 10601 10597 10592 10587 10582 10577 10573 10569 10565
10676 10676 10675 10674 10672 10672 10671 10670 10668 10666 10664 10662 10660 10658 10654 10652 10649 10646 10643 10640 10637 10634 10631 10628 10626 10623 10620 10616 10613 10609 10605 10601 10597 10592 10588 10584 10579 10574 10569 10564 10560 10556
10670 10670 10669 10667 10666 10665 10664 10663 10661 10659 10657 10655 10653 10650 10647 10644 10642 10639 10636 10633 10630 10627 10625 10622 10619 10616 10612 10608 10604 10600 10596 10592 10588 10584 10579 10575 10571 10566 10561 10556 10551 10546
10664 10664 10663 10661 10660 10659 10658 10656 10654 10652 10650 10648 10645 10643 10640 10637 10635 10632 10630 10627 10624 10621 10618 10615 10612 10608 10604 10600 10596 10591 10587 10583 10578 10574 10570 10566 10561 10556 10551 10546 10541 10536
10658 10658 10656 10655 10654 10653 10651 10649 10647 10645 10643 10640 10638 10636 10633 10631 10628 10626 10623 10620 10618 10615 10611 10608 10605 10601 10596 10592 10587 10583 10578 10574 10569 10565 10560 10556 10551 10546 10541 10536 10530 10526
10653 10651 10650 10649 10648 10646 10644 10642 10640 10638 10636 10634 10632 10629 10627 10624 10622 10619 10617 10614 10611 10608 10604 10601 10596 10592 10588 10583 10579 10574 10569 10565 10560 10555 10550 10546 10541 10536 10531 10526 10521 10516
10646 10645 10644 10642 10641 10639 10637 10635 10633 10631 10629 10627 10625 10622 10620 10618 10615 10613 10610 10607 10604 10600 10597 10593 10588 10584 10580 10575 10571 10566 10561 10556 10551 10546 10541 10536 10532 10527 10522 10517 10513 10508
10639 10638 10637 10635 10633 10631 10630 10628 10626 10624 10622 10620 10618 10615 10613 10611 10608 10606 10603 10600 10596 10593 10589 10585 10581 10577 10572 10568 10563 10558 10553 10548 10542 10536 10532 10527 10522 10518 10513 10508 10504 10499
10633 10631 10630 10628 10626 10625 10623 10621 10619 10617 10615 10613 10611 10609 10606 10604 10601 10598 10595 10592 10589 10585 10582 10578 10573 10569 10565 10560 10555 10550 10544 10539 10533 10527 10522 10517 10513 10508 10504 10500 10495 10491
10626 10624 10623 10621 10619 10618 10616 10614 10612 10611 10609 10607 10605 10602 10599 10596 10594 10590 10588 10585 10581 10577 10574 10570 10566 10561 10557 10552 10546 10541 10535 10530 10524 10519 10513 10508 10504 10499 10495 10491 10486 10483
10619 10618 10616 10614 10613 10611 10609 10608 10606 10604 10602 10600 10598 10595 10592 10589 10586 10583 10580 10577 10573 10570 10566 10562 10558 10553 10548 10543 10538 10532 10527 10521 10516 10511 10506 10501 10496 10491 10487 10482 10478 10473
10613 10611 10609 10607 10606 10605 10603 10601 10599 10597 10595 10593 10591 10588 10585 10582 10579 10576 10572 10569 10565 10562 10558 10554 10550 10545 10540 10535 10529 10524 10518 10513 10508 10503 10498 10493 10488 10484 10479 10474 10470 10465
10605 10604 10602 10601 10599 10598 10596 10594 10592 10590 10588 10586 10583 10581 10577 10574 10571 10568 10565 10561 10558 10554 10551 10546 10541 10537 10532 10526 10521 10516 10510 10505 10500 10496 10491 10485 10480 10476 10471 10467 10462 10457
10598 10596 10595 10594 10592 10590 10589 10587 10585 10583 10581 10579 10576 10573 10570 10567 10564 10561 10558 10554 10551 10547 10542 10538 10533 10528 10523 10518 10513 10507 10502 10497 10493 10488 10484 10478 10473 10468 10463 10459 10454 10448
10591 10590 10588 10587 10585 10584 10582 10581 10579 10577 10575 10572 10569 10566 10563 10560 10557 10554 10550 10547 10543 10539 10534 10530 10525 10520 10515 10510 10505 10500 10495 10490 10486 10481 10477 10472 10466 10461 10455 10450 10445 10440
10585 10583 10582 10580 10579 10577 10576 10574 10573 10571 10568 10565 10562 10559 10556 10553 10550 10547 10543 10540 10535 10531 10526 10522 10517 10512 10507 10502 10497 10492 10487 10483 10478 10474 10469 10465 10460 10454 10449 10443 10437 10432
10578 10577 10575 10574 10572 10571 10570 10568 10566 10564 10561 10558 10555 10552 10549 10546 10543 10539 10536 10532 10527 10523 10518 10514 10509 10504 10500 10495 10490 10485 10481 10476 10472 10467 10462 10457 10452 10447 10441 10436 10430 10424
10571 10570 10569 10568 10567 10566 10564 10562 10560 10557 10554 10551 10548 10545 10542 10539 10536 10533 10529 10524 10519 10515 10510 10506 10501 10497 10493 10488 10483 10479 10474 10470 10465 10460 10455 10449 10444 10439 10433 10427 10421 10415